• In Belgium
  • List of Countries
  • For 7 days
  • Water Temperature
  • Satellite Maps
  • Weather Map
  • Weather Widgets
  • user-avatar
    Login

    Hourly Weather York

    Today, 21 June, Thursday

    Time Temperature Precipitation Wind Pressure Humidity
    00:00 +8°C° 0 mm 4 mps 763 mmHg 78%
    01:00 +8°C° 0 mm 5 mps 763 mmHg 77%
    02:00 +8°C° 0 mm 6 mps 764 mmHg 77%
    03:00 +7°C° 0 mm 6 mps 764 mmHg 76%
    04:00 +8°C° 0 mm 6 mps 764 mmHg 75%
    05:00 +8°C° 0 mm 7 mps 764 mmHg 74%
    06:00 +9°C° 0 mm 5 mps 765 mmHg 74%
    07:00 +10°C° 0 mm 5 mps 765 mmHg 70%
    08:00 +11°C° 0 mm 6 mps 766 mmHg 66%
    09:00 +13°C° 0 mm 6 mps 766 mmHg 62%
    10:00 +14°C° 0 mm 6 mps 767 mmHg 60%
    11:00 +15°C° 0 mm 6 mps 767 mmHg 58%
    12:00 +16°C° 0 mm 6 mps 768 mmHg 55%
    13:00 +16°C° 0 mm 6 mps 768 mmHg 56%
    14:00 +16°C° 0 mm 5 mps 768 mmHg 57%
    15:00 +17°C° 0 mm 5 mps 768 mmHg 57%
    16:00 +16°C° 0.1 mm 5 mps 768 mmHg 61%
    17:00 +17°C° 0.1 mm 4 mps 769 mmHg 65%
    18:00 +17°C° 0.1 mm 4 mps 769 mmHg 69%
    19:00 +14°C° 0 mm 4 mps 769 mmHg 72%
    20:00 +13°C° 0 mm 3 mps 770 mmHg 75%
    21:00 +12°C° 0 mm 3 mps 770 mmHg 78%
    22:00 +11°C° 0 mm 3 mps 770 mmHg 79%
    23:00 +10°C° 0 mm 3 mps 770 mmHg 81%

    Tomorrow, 22 June, Friday

    Time Temperature Precipitation Wind Pressure Humidity
    00:00 +10°C° 0 mm 4 mps 771 mmHg 82%
    01:00 +8°C° 0 mm 4 mps 771 mmHg 82%
    02:00 +9°C° 0 mm 3 mps 771 mmHg 83%
    03:00 +8°C° 0 mm 3 mps 771 mmHg 84%
    04:00 +8°C° 0 mm 4 mps 771 mmHg 81%
    05:00 +8°C° 0 mm 4 mps 771 mmHg 78%
    06:00 +10°C° 0 mm 4 mps 771 mmHg 75%
    07:00 +12°C° 0 mm 4 mps 771 mmHg 68%
    08:00 +13°C° 0 mm 3 mps 771 mmHg 61%
    09:00 +16°C° 0 mm 3 mps 772 mmHg 55%
    10:00 +17°C° 0 mm 3 mps 771 mmHg 52%
    11:00 +18°C° 0 mm 3 mps 771 mmHg 50%
    12:00 +19°C° 0 mm 3 mps 771 mmHg 47%
    13:00 +19°C° 0 mm 3 mps 771 mmHg 49%
    14:00 +19°C° 0 mm 3 mps 771 mmHg 50%
    15:00 +20°C° 0 mm 3 mps 771 mmHg 52%
    16:00 +19°C° 0 mm 3 mps 771 mmHg 57%
    17:00 +19°C° 0 mm 3 mps 771 mmHg 62%
    18:00 +18°C° 0 mm 3 mps 770 mmHg 67%
    19:00 +17°C° 0 mm 3 mps 770 mmHg 72%
    20:00 +14°C° 0 mm 3 mps 770 mmHg 77%
    21:00 +13°C° 0 mm 3 mps 770 mmHg 83%
    22:00 +12°C° 0 mm 3 mps 770 mmHg 84%
    23:00 +11°C° 0 mm 3 mps 770 mmHg 86%

    Day after tomorrow, 23 June, Saturday

    Time Temperature Precipitation Wind Pressure Humidity
    00:00 +11°C° 0 mm 3 mps 770 mmHg 87%
    01:00 +10°C° 0 mm 3 mps 770 mmHg 88%
    02:00 +10°C° 0 mm 3 mps 770 mmHg 88%
    03:00 +9°C° 0 mm 3 mps 770 mmHg 89%
    04:00 +10°C° 0 mm 3 mps 770 mmHg 85%
    05:00 +11°C° 0 mm 3 mps 770 mmHg 81%
    06:00 +11°C° 0 mm 3 mps 769 mmHg 77%
    07:00 +12°C° 0 mm 3 mps 770 mmHg 73%
    08:00 +14°C° 0 mm 3 mps 770 mmHg 68%
    09:00 +15°C° 0 mm 4 mps 770 mmHg 64%
    10:00 +17°C° 0 mm 4 mps 770 mmHg 61%
    11:00 +18°C° 0 mm 3 mps 769 mmHg 58%
    12:00 +19°C° 0 mm 3 mps 769 mmHg 55%
    13:00 +19°C° 0 mm 3 mps 769 mmHg 56%
    14:00 +20°C° 0 mm 4 mps 769 mmHg 57%
    15:00 +20°C° 0 mm 4 mps 768 mmHg 59%
    16:00 +19°C° 0 mm 3 mps 768 mmHg 63%
    17:00 +19°C° 0 mm 3 mps 768 mmHg 67%
    18:00 +18°C° 0 mm 3 mps 768 mmHg 71%
    19:00 +17°C° 0 mm 2 mps 768 mmHg 76%
    20:00 +15°C° 0 mm 2 mps 769 mmHg 80%
    21:00 +14°C° 0 mm 1 mps 769 mmHg 85%
    22:00 +13°C° 0 mm 1 mps 769 mmHg 86%
    23:00 +13°C° 0 mm 1 mps 769 mmHg 88%

    24 June, Sunday

    Time Temperature Precipitation Wind Pressure Humidity
    00:00 +12°C° 0 mm 1 mps 768 mmHg 89%
    01:00 +12°C° 0 mm 1 mps 768 mmHg 90%
    02:00 +12°C° 0 mm 1 mps 768 mmHg 90%
    03:00 +12°C° 0 mm 1 mps 768 mmHg 90%
    04:00 +13°C° 0 mm 1 mps 768 mmHg 88%
    05:00 +14°C° 0 mm 1 mps 768 mmHg 85%
    06:00 +15°C° 0 mm 1 mps 768 mmHg 83%
    07:00 +16°C° 0 mm 1 mps 768 mmHg 78%
    08:00 +19°C° 0 mm 1 mps 768 mmHg 72%
    09:00 +19°C° 0 mm 0 mps 768 mmHg 67%
    10:00 +22°C° 0 mm 1 mps 768 mmHg 64%
    11:00 +23°C° 0 mm 1 mps 768 mmHg 62%
    12:00 +24°C° 0 mm 1 mps 768 mmHg 59%
    13:00 +24°C° 0 mm 1 mps 768 mmHg 59%
    14:00 +24°C° 0 mm 1 mps 768 mmHg 59%
    15:00 +24°C° 0 mm 1 mps 768 mmHg 60%
    16:00 +24°C° 0 mm 1 mps 768 mmHg 63%
    17:00 +23°C° 0 mm 2 mps 768 mmHg 67%
    18:00 +23°C° 0 mm 2 mps 768 mmHg 71%
    19:00 +20°C° 0 mm 2 mps 768 mmHg 76%
    20:00 +19°C° 0 mm 2 mps 768 mmHg 81%
    21:00 +17°C° 0 mm 2 mps 768 mmHg 87%
    22:00 +16°C° 0 mm 2 mps 768 mmHg 88%
    23:00 +16°C° 0 mm 1 mps 768 mmHg 89%

    25 June, Monday

    Time Temperature Precipitation Wind Pressure Humidity
    00:00 +15°C° 0 mm 1 mps 768 mmHg 90%
    01:00 +15°C° 0 mm 1 mps 768 mmHg 90%
    02:00 +15°C° 0 mm 1 mps 768 mmHg 90%
    03:00 +14°C° 0 mm 1 mps 768 mmHg 90%
    04:00 +16°C° 0 mm 1 mps 768 mmHg 88%
    05:00 +18°C° 0 mm 1 mps 768 mmHg 85%
    06:00 +19°C° 0 mm 1 mps 769 mmHg 83%
    07:00 +20°C° 0 mm 1 mps 769 mmHg 78%
    08:00 +22°C° 0 mm 1 mps 769 mmHg 73%
    09:00 +23°C° 0 mm 1 mps 769 mmHg 68%
    10:00 +24°C° 0 mm 1 mps 769 mmHg 65%
    11:00 +25°C° 0 mm 1 mps 769 mmHg 62%
    12:00 +26°C° 0 mm 1 mps 769 mmHg 60%
    13:00 +26°C° 0.1 mm 1 mps 769 mmHg 61%
    14:00 +26°C° 0.1 mm 1 mps 769 mmHg 61%
    15:00 +26°C° 0.1 mm 1 mps 769 mmHg 62%
    16:00 +25°C° 0.1 mm 1 mps 769 mmHg 66%
    17:00 +25°C° 0.1 mm 2 mps 769 mmHg 70%
    18:00 +24°C° 0.1 mm 2 mps 769 mmHg 74%
    19:00 +23°C° 0 mm 2 mps 769 mmHg 78%
    20:00 +20°C° 0 mm 2 mps 769 mmHg 83%
    21:00 +19°C° 0 mm 2 mps 769 mmHg 87%
    22:00 +19°C° 0 mm 1 mps 769 mmHg 88%
    23:00 +18°C° 0 mm 1 mps 770 mmHg 88%

    26 June, Tuesday

    Time Temperature Precipitation Wind Pressure Humidity
    00:00 +18°C° 0 mm 1 mps 770 mmHg 89%
    01:00 +16°C° 0 mm 1 mps 770 mmHg 89%
    02:00 +16°C° 0 mm 1 mps 769 mmHg 89%
    03:00 +15°C° 0 mm 0 mps 769 mmHg 90%
    04:00 +15°C° 0 mm 0 mps 769 mmHg 88%
    05:00 +18°C° 0 mm 1 mps 770 mmHg 86%
    06:00 +19°C° 0 mm 1 mps 770 mmHg 84%
    07:00 +21°C° 0 mm 1 mps 770 mmHg 79%
    08:00 +22°C° 0 mm 1 mps 770 mmHg 74%
    09:00 +23°C° 0 mm 2 mps 770 mmHg 69%
    10:00 +24°C° 0 mm 2 mps 770 mmHg 64%
    11:00 +25°C° 0 mm 2 mps 770 mmHg 59%
    12:00 +26°C° 0 mm 3 mps 770 mmHg 54%
    13:00 +25°C° 0 mm 3 mps 769 mmHg 55%
    14:00 +25°C° 0 mm 3 mps 769 mmHg 55%
    15:00 +25°C° 0 mm 4 mps 769 mmHg 55%
    16:00 +23°C° 0 mm 4 mps 769 mmHg 58%
    17:00 +22°C° 0 mm 4 mps 769 mmHg 62%
    18:00 +21°C° 0 mm 3 mps 769 mmHg 65%
    19:00 +19°C° 0 mm 3 mps 770 mmHg 69%
    20:00 +17°C° 0 mm 3 mps 770 mmHg 72%
    21:00 +15°C° 0 mm 2 mps 770 mmHg 76%
    22:00 +14°C° 0 mm 2 mps 770 mmHg 76%
    23:00 +13°C° 0 mm 2 mps 770 mmHg 76%
    Show more